Weather in Balbieriškis

Lithuania     54°30′46″N   23°53′29″E
temp.,
°C
wind,
m/s
gust,
m/s
humid.,
%
clouds,
%
prec.,
mm/h
press.,
hPa
HPBL,
m
28 july, wed
wed2800:00+19ssw3595100 0.4 1012108
03:00+17wsw35955 0.4 101197
06:00+17w22955 0.0 101222
09:00+21w128280 0.0 1012300
12:00+26wsw345837 0.0 1011995
15:00+27w454731 0.0 10111710
18:00+27wnw354752 0.0 10101682
21:00+22s116113 0.0 100911
29 july, thu
thu2900:00+19s2276100 0.3 101029
03:00+18w1499100 8.8 1009129
06:00+18sw3897100 2.6 1009302
09:00+19wsw369384 2.6 1009447
12:00+23wnw456316 0.0 10091221
15:00+25w475483 0.1 10081879
18:00+23w486284 0.0 1008522
21:00+20wsw237223 0.0 100854
30 july, fri
fri3000:00+17w3482100 0.1 100982
03:00+16w118768 0.1 100911
06:00+15ssw369070 0.0 1008121
09:00+20sw596029 0.0 1008718
12:00+23wsw6104387 0.0 10081917
15:00+22wsw51051100 0.0 10071219
18:00+21w4957100 0.0 1006794
21:00+18sw410640 0.0 1006334
31 july, sat
sat3100:00+15sw4107381 0.0 1006215
03:00+13sw34840 0.0 100756
06:00+13ssw338194 0.0 100750
09:00+19ssw4760100 0.0 1007331
12:00+23sw4648100 0.0 1006827
15:00+22sw6764100 0.2 1006691
18:00+20sse3787100 2.0 1004313
21:00+18sw3690100 3.2 1004113
1 august, sun
sun100:00+16w41093100 0.1 1005200
03:00+14wsw36910 0.1 100691
06:00+12sw411910 0.0 1007221
09:00+17wsw51076100 0.0 1007552
12:00+22wsw575649 0.0 10081520
15:00+24w5747100 0.0 10082051
18:00+23wsw3552100 0.0 10081522
21:00+19w2368100 0.0 100747